Lid_Strength_Index
2 4 4 4 8 7 9 8 6 6 6 4 4 5 6 5 6 8 1 0 -0 -0 -1 -1 -1 -1 -1 -1 -1 -1 -1 -1 -1 -1 -1 -1 -1 -1 -1 -1 -1 -1 -1 -2 -2 -2 -2 -2 -1
3 4 4 6 8 10 9 7 7 6 5 4 4 5 5 6 3 3 2 -0 -0 -1 -1 -1 -1 -1 -1 -1 -1 -1 -1 -1 -1 -1 -1 -1 -1 -1 -1 -1 -1 -1 -2 -2 -2 -2 -2 -2 -2
4 5 6 7 8 10 10 6 6 5 4 4 5 4 4 5 3 2 0 -0 -1 -1 -1 -2 -1 -1 -1 -1 -1 -1 -1 -1 -1 -1 -1 -1 -1 -1 -1 -1 -2 -2 -2 -2 -2 -2 -2 -2 -2
5 5 6 10 9 7 7 6 6 6 6 5 4 6 3 3 2 1 -0 -0 -0 -0 -1 -1 -1 -1 -1 -1 -1 -1 -1 -1 -1 -1 -1 -1 -1 -1 -1 -1 -2 -2 -2 -2 -2 -2 -2 -2 -2
3 5 8 9 8 8 6 6 7 6 6 6 4 6 5 2 1 0 0 -0 0 -0 -1 -1 -1 -1 -1 -1 -1 -1 -1 -1 -1 -1 -1 -1 -1 -1 -1 -1 -2 -2 -2 -2 -2 -2 -2 -2 -2
5 5 9 10 9 8 7 6 6 6 5 5 6 5 4 1 1 1 -0 -0 -0 -0 -1 -1 -1 -1 -1 -1 -1 -1 -1 -1 -1 -1 -1 -1 -1 -1 -1 -1 -2 -2 -2 -2 -2 -2 -2 -2 -2
6 6 8 8 8 9 8 6 6 6 5 6 5 6 4 2 1 0 -0 -0 -0 -1 -1 -1 -1 -1 -1 -1 -1 -1 -1 -1 -1 -1 -1 -1 -1 -1 -1 -1 -1 -2 -2 -2 -2 -1 -1 -2 -1
4 5 7 8 9 9 7 7 6 6 5 5 4 6 5 2 1 0 0 0 -0 -0 -1 -1 -1 -1 -2 -2 -1 -1 -1 -1 -1 -1 -1 -1 -1 -1 -1 -1 -1 -1 -1 -1 -1 -1 -1 -2 -2
4 7 8 8 7 8 6 7 6 6 6 6 5 5 4 2 1 1 1 1 1 0 -0 -1 -1 -1 -1 -1 -1 -1 -1 -1 -1 -1 -1 -1 -2 -2 -2 -2 -2 -1 -1 -1 -1 -1 -2 -2 -2
6 8 7 5 5 6 6 6 6 6 6 6 6 5 4 2 2 2 2 2 1 1 0 -0 -1 -1 -1 -1 -2 -2 -2 -2 -2 -2 -2 -2 -2 -2 -2 -2 -1 -1 -1 -1 -1 -1 -1 -1 -2
6 8 6 6 4 4 5 6 5 6 7 5 6 5 5 5 2 2 2 2 1 1 0 -0 -1 -1 -1 -1 -1 -1 -1 -1 -2 -2 -2 -2 -2 -2 -2 -2 -1 -2 -1 -2 -1 -1 -2 -2 -1
7 6 6 5 5 5 6 5 6 6 5 5 5 5 5 5 5 2 2 2 1 1 0 -0 -0 -1 -1 -1 -1 -1 -1 -1 -1 -1 -2 -2 -1 -1 -1 -1 -1 -2 -2 -2 -2 -1 -2 -1 -1
6 6 5 5 5 5 5 6 6 6 5 4 4 4 4 5 4 3 1 1 1 1 0 0 -0 -0 -1 -1 -1 -1 -1 -1 -1 -1 -2 -1 -1 -1 -1 -1 -1 -1 -2 -1 -1 -1 -1 -1 -1
5 5 6 5 5 5 6 6 6 6 4 4 4 4 4 4 4 4 3 1 1 1 1 -0 -0 -0 -0 -0 -1 -1 -1 -1 -1 -1 -1 -1 -1 -1 -1 -1 -1 -1 -1 -1 -1 -1 -1 -1 -1
6 7 6 6 5 6 5 7 7 5 4 4 4 3 4 3 3 3 3 2 1 1 0 0 -0 -1 -0 -0 -0 -0 -1 -1 -1 -1 -1 -1 -1 -1 -1 -1 -1 -1 -2 -2 -1 -1 -1 -1 -1
7 7 9 6 6 6 6 9 6 5 5 5 4 4 3 3 3 2 1 1 0 0 1 0 -0 -0 -0 -0 -0 -0 -1 -0 -0 -0 -1 -1 -1 -2 -1 -0 -0 -1 -1 -1 -1 -1 -0 -0 -0
8 10 9 8 6 6 7 8 6 5 5 5 4 4 4 3 3 2 2 2 0 0 0 0 0 0 -0 -0 -0 -0 -1 -0 -0 -1 -1 -1 -1 -1 -0 -1 -1 -1 -1 -1 -1 -0 -0 0 0
10 10 9 9 7 7 8 8 6 5 5 5 5 4 4 3 3 2 2 1 1 -0 -0 0 0 -0 -0 -0 -0 -0 -0 -0 -0 -0 -0 -1 -1 -1 -1 -1 -0 -0 -0 -0 -0 0 -0 0 -0
9 9 10 8 7 8 8 7 6 5 5 5 5 4 4 3 2 1 1 0 0 -0 -0 0 0 0 0 1 1 1 1 1 0 -0 -1 -1 -1 -1 -1 -0 -0 -0 0 0 0 0 1 1 -0
9 9 9 8 7 8 7 8 6 5 5 5 5 4 4 3 2 2 1 0 0 0 -0 -0 0 0 0 0 1 0 0 0 0 -0 -1 -1 -1 -1 -0 -1 -0 -0 0 0 0 0 1 1 0
8 9 9 9 8 7 8 9 8 6 5 5 4 4 3 3 3 2 2 1 0 0 0 -0 -0 -0 0 -0 0 0 0 0 1 0 0 -0 -1 -1 -1 -1 -0 -0 -0 1 0 0 1 2 1
9 7 8 8 9 11 8 12 8 7 6 5 4 4 3 3 2 2 1 1 1 0 0 -0 -0 -0 -0 -0 0 1 2 2 1 1 0 -0 -1 -1 -1 -1 -0 -0 -0 -0 0 0 0 1 2
9 8 8 8 9 9 9 11 9 7 8 6 5 4 3 3 3 2 2 1 1 0 0 -0 -0 -0 -0 -0 0 1 2 1 1 1 0 0 -0 -1 -0 -1 -1 -0 -0 -0 -0 -0 0 0 1
7 8 8 8 9 12 10 10 10 8 7 6 5 4 4 4 3 2 1 1 1 0 0 0 -0 0 -0 -0 0 1 1 1 1 1 1 1 1 0 -0 -1 -1 -1 -0 -0 -0 -0 -0 0 0
8 9 12 13 13 13 9 10 9 7 6 6 6 5 4 3 3 3 2 2 1 1 1 1 0 1 0 0 0 1 1 1 1 1 1 1 1 1 0 -0 -0 -0 -0 -1 -1 -0 -0 0 1
8 9 12 16 15 12 10 12 9 7 6 5 5 5 4 4 3 3 2 2 2 1 1 1 1 1 0 0 0 0 0 1 1 1 1 1 1 0 -1 -0 -0 -0 -0 -0 -0 0 0 -0 0
9 11 8 11 10 13 11 9 7 7 7 6 6 5 5 4 3 3 3 2 2 1 1 1 1 1 1 0 0 0 0 1 1 0 0 0 -0 -0 -1 -0 -0 -0 -1 -1 -1 0 0 -0 0
9 7 11 11 16 17 13 12 11 8 8 6 6 6 5 4 4 3 2 2 1 1 1 0 1 1 1 0 0 1 0 0 0 0 0 -0 -0 -1 -1 -0 -1 -1 -1 -1 -1 -0 -0 0 0
10 10 10 10 11 16 17 13 8 8 7 7 6 5 5 4 4 3 3 2 1 1 1 1 1 1 1 1 1 1 0 0 -0 0 0 -0 -0 -1 -0 -0 -0 -0 -0 -0 -0 -0 -0 0 0
9 10 10 15 16 13 15 15 6 6 6 6 6 5 5 4 4 3 2 2 2 2 1 1 1 1 1 0 0 1 0 0 0 0 0 -0 -0 -0 0 -0 0 -0 -0 -0 -0 0 -0 0 0